Location: �bnet
(46.9957°N, 8.4908°E)
Time: 04:23:15
(UTC+00:00)

Cosmos 1500 - Pass Details

Date: 11 May 2021
Orbit: 497 x 518 km, 82.5° (Epoch: 23 June)

Event Time Altitude Azimuth Distance (km) Brightness Sun altitude
Rises 19:48:06 0° 358° (N) 2,615 7.4 -9.1°
Reaches altitude 10° 19:50:23 10° 8° (N) 1,721 6.3 -9.4°
Maximum altitude 19:53:50 33° 75° (ENE) 856 4.0 -9.8°
Enters shadow 19:56:30 15° 135° (SE) 1,434 4.8 -10.2°
